EHI
0 0 0 0 0 0 0 1 2 3 3 6 10 14 17 22 30 39 44 46 50 55 58 57 54 53 50 48 48 50 53 53 53 57 59 59 57 57 56 53 51 50 49 46
0 0 0 0 0 0 0 1 3 4 6 9 12 14 17 23 30 39 44 47 52 58 62 63 61 57 53 50 50 53 55 56 56 59 61 60 59 57 56 55 54 51 47 44
0 0 0 0 0 0 1 2 3 6 9 12 13 14 17 22 28 35 41 45 51 58 62 65 66 62 56 52 51 53 55 56 57 59 61 61 59 57 56 57 55 51 44 41
0 0 0 0 0 1 1 3 6 9 12 13 13 13 15 19 24 29 34 40 46 50 52 57 61 59 55 50 47 47 50 54 56 58 59 59 58 58 58 57 53 48 44 43
0 0 0 0 0 1 2 6 10 13 15 14 13 12 13 17 21 26 32 38 42 42 44 50 53 52 49 46 42 41 45 51 55 56 55 56 58 58 57 54 49 46 46 46
0 0 0 0 1 2 4 8 13 15 15 14 14 15 15 16 20 27 34 40 43 42 44 48 50 49 48 46 42 41 44 49 52 53 52 52 53 54 52 48 45 45 45 44
0 0 1 1 1 3 8 12 15 16 15 15 17 20 21 19 22 29 34 39 43 44 46 49 51 51 51 50 46 43 44 47 49 49 48 47 47 46 44 43 43 43 43 41
1 2 4 5 5 8 14 17 17 18 19 18 20 23 22 22 25 28 30 34 41 45 47 49 50 51 52 51 48 45 44 45 44 43 42 41 41 40 39 40 40 40 39 37
6 7 9 11 13 15 18 18 17 18 20 19 18 19 22 23 22 23 26 31 37 42 45 46 46 47 48 48 46 44 43 40 38 38 38 38 37 35 34 34 34 33 32 32
13 12 11 13 16 16 16 15 14 15 17 16 15 18 22 22 20 21 25 30 34 39 42 42 41 40 41 43 43 41 38 34 34 35 35 34 32 30 27 26 25 25 26 27
15 13 12 14 15 14 13 12 11 12 14 14 15 18 22 24 22 23 26 29 32 35 37 36 34 34 35 36 39 37 32 30 31 31 30 27 23 20 18 17 16 16 19 21
12 12 12 14 14 12 12 12 12 13 14 14 16 19 22 24 25 25 26 28 29 30 30 28 27 28 30 32 34 33 29 27 26 25 24 22 18 14 10 8 7 8 10 11
9 10 11 12 12 11 12 12 12 13 13 14 16 19 20 22 23 23 23 25 26 26 25 23 23 25 27 29 30 29 26 24 21 19 20 20 18 15 11 6 4 3 3 3
9 9 11 12 12 12 12 12 11 11 12 15 17 17 17 17 18 18 19 20 21 23 23 22 22 24 25 26 26 25 22 19 16 15 15 17 18 17 15 11 7 5 2 1
8 9 10 11 11 11 11 11 11 11 13 15 16 14 12 14 14 15 16 17 18 20 21 22 22 23 23 21 20 20 17 14 12 11 11 14 16 15 15 14 12 9 5 2
6 7 7 7 7 8 8 8 9 11 13 14 14 12 10 11 12 13 14 16 16 18 21 21 21 22 20 17 15 14 11 8 8 8 9 11 13 14 14 13 12 11 8 5
4 4 4 4 5 6 5 5 5 7 9 11 12 11 10 10 10 11 12 14 16 18 20 20 20 19 17 13 11 10 8 6 6 7 8 9 11 14 14 12 12 11 9 7
2 2 2 3 4 4 4 4 4 6 7 8 10 9 9 9 10 10 12 15 17 18 18 17 15 15 12 9 7 7 6 5 6 7 8 8 10 12 14 13 12 10 8 6
1 1 1 2 3 3 3 4 5 5 5 6 7 7 7 8 9 10 13 16 16 14 14 12 11 10 8 6 5 4 4 4 4 6 7 7 8 10 12 13 11 7 5 4
0 0 0 1 2 3 3 3 4 4 3 3 4 5 5 6 6 8 11 12 11 9 9 8 8 7 5 3 2 2 1 1 2 3 5 5 6 8 10 9 6 4 3 2
0 0 0 2 4 5 4 3 3 3 2 2 3 4 4 4 4 5 6 6 6 6 6 6 5 4 2 1 1 0 1 1 1 2 3 3 3 4 5 4 2 2 2 1
0 1 2 4 5 5 3 1 1 2 1 1 2 3 3 3 3 3 3 3 4 4 4 4 4 3 1 0 0 1 2 2 2 2 1 1 1 1 1 1 0 1 1 1
1 2 4 5 5 3 1 0 1 1 1 2 3 4 3 3 3 3 3 3 3 2 3 3 2 1 0 1 1 2 3 3 2 1 0 0 0 0 0 1 1 0 0 1
4 4 4 4 3 1 1 1 1 2 2 2 4 4 4 3 3 3 3 3 2 1 2 2 1 0 0 1 2 2 2 1 1 0 0 0 0 0 0 1 1 0 0 0
4 5 4 3 2 1 1 1 1 1 1 2 3 4 3 3 3 3 3 3 1 1 2 1 1 0 0 1 1 1 1 0 0 0 0 0 0 0 0 1 1 0 0 0
3 3 4 3 2 1 1 1 1 0 1 2 3 3 3 3 3 3 3 3 2 2 2 2 1 1 0 0 0 0 0 0 0 0 0 0 0 0 0 0 0 0 0 0
1 1 2 2 1 1 1 2 1 1 2 3 3 3 3 3 3 3 3 3 3 3 3 3 2 1 0 0 0 0 0 0 0 0 0 0 0 0 0 0 0 0 0 0
Wind_Speed
15 15 14 14 13 14 14 13 11 7 7 4 2 2 3 5 6 7 6 5 5 5 6 7 7 6 6 5 5 5 6 6 6 6 6 5 5 4 4 4 5 4 4 4
15 16 15 16 15 14 15 12 12 9 6 1 1 1 3 4 5 5 5 5 4 4 6 7 7 6 5 5 5 5 5 6 5 5 5 5 5 4 4 4 3 4 4 4
13 14 15 17 16 15 13 11 10 9 5 3 1 1 3 4 4 4 4 4 3 3 4 6 6 6 6 5 4 5 5 4 4 4 4 4 5 5 5 4 4 3 3 3
11 13 17 11 9 9 9 7 6 3 3 3 3 2 2 3 4 4 4 4 3 3 3 4 6 6 6 5 5 4 4 4 4 4 4 4 3 3 3 3 3 3 3 3
9 13 15 11 8 8 7 5 2 1 2 3 2 2 2 4 4 3 4 4 3 3 3 3 4 5 5 5 4 4 4 4 4 4 4 4 4 3 3 2 3 3 2 2
10 13 13 5 5 6 5 4 2 2 3 2 1 2 2 5 5 5 5 4 3 3 2 2 3 3 4 4 4 3 3 3 3 4 4 4 3 3 2 2 3 3 2 2
14 14 10 5 6 7 7 0 4 4 4 2 3 3 3 4 4 4 3 4 4 3 2 2 2 3 2 2 2 2 2 3 3 3 3 4 3 3 3 3 3 2 2 2
12 14 7 6 4 3 3 5 5 4 4 4 4 4 3 3 4 3 3 3 3 3 2 2 3 3 2 1 1 1 2 2 2 3 3 3 3 3 3 3 3 3 3 2
4 3 1 5 5 4 4 4 3 3 2 3 2 2 1 2 3 2 1 2 2 2 2 3 3 2 2 1 1 1 2 2 2 3 2 3 3 3 3 3 3 3 3 2
3 2 1 2 3 3 4 3 3 3 2 1 1 1 0 1 1 2 1 1 1 2 1 2 2 2 2 2 1 1 2 2 2 3 3 3 2 2 2 2 2 2 2 2
5 5 5 3 2 3 4 4 3 3 3 1 1 1 0 0 0 1 1 1 1 1 1 1 2 2 1 1 1 1 1 2 2 3 3 2 1 1 0 0 1 2 1 1
5 5 6 5 4 3 3 4 4 3 3 2 2 1 1 0 0 1 1 0 0 0 1 1 1 1 1 1 2 1 1 2 2 3 3 3 3 2 5 3 2 2 2 2
6 6 6 7 5 4 3 4 4 4 4 3 2 1 0 0 1 2 2 1 1 1 1 1 1 1 1 1 1 1 2 2 2 2 3 3 3 3 2 2 3 3 2 3
5 5 7 7 5 4 3 3 3 4 3 3 1 1 1 1 1 2 2 1 1 1 1 1 1 1 1 1 1 1 2 2 2 2 2 3 3 3 3 3 2 1 1 2
5 5 5 5 4 4 4 3 3 3 3 3 2 1 1 1 2 2 1 1 1 1 1 1 0 0 0 1 1 2 2 2 2 2 2 2 2 3 2 2 2 2 1 1
5 5 6 5 4 4 4 3 3 3 3 3 2 1 1 1 2 2 1 0 1 1 0 1 0 0 0 1 2 2 2 2 2 2 2 1 2 2 2 2 2 2 2 1
6 5 5 5 5 5 4 4 4 3 3 3 2 2 1 1 2 1 1 0 0 1 1 1 1 1 1 1 2 2 2 1 2 2 1 1 1 1 1 2 2 2 2 3
5 5 4 4 4 4 4 4 3 3 3 2 2 1 1 1 1 1 1 1 2 2 2 2 2 1 1 1 1 2 2 1 0 0 0 1 1 1 1 1 2 2 2 2
4 4 4 4 4 3 3 3 2 3 2 1 0 1 1 1 1 1 1 2 2 2 2 2 2 1 1 2 2 1 1 0 1 1 1 1 1 1 1 1 1 1 1 1
3 3 4 3 2 1 2 1 1 1 1 1 1 2 2 2 2 1 1 2 2 1 1 1 1 2 2 3 2 1 1 1 2 2 1 1 1 0 0 1 1 0 1 1
2 2 2 2 2 2 1 1 0 1 0 1 2 2 2 1 1 1 1 2 2 2 1 1 0 2 3 3 3 1 1 2 3 2 2 2 2 1 1 2 2 1 2 2
2 2 2 3 2 2 2 1 1 1 2 2 2 2 2 1 1 1 2 2 2 2 1 1 2 4 4 3 2 2 2 3 3 2 2 3 2 2 3 3 3 2 2 2
3 3 3 3 3 2 2 2 3 2 2 2 2 2 2 1 1 1 2 2 2 3 2 3 4 4 4 2 2 2 3 3 3 3 3 3 3 3 3 3 3 3 3 2
3 3 3 3 3 3 3 3 3 3 3 3 3 3 3 2 2 2 3 5 6 4 4 5 5 5 3 2 2 3 4 4 4 4 4 4 3 3 3 3 3 3 2 2
4 3 3 3 3 2 3 3 3 3 3 3 5 5 3 3 3 3 4 5 6 4 4 4 3 2 2 3 4 4 4 5 4 4 4 3 3 3 3 3 3 3 2 2
2 3 3 3 3 2 2 2 2 2 3 4 4 4 4 3 4 4 4 5 5 4 3 3 3 3 4 4 4 4 4 4 4 3 3 3 4 3 3 3 4 3 3 3
3 2 2 2 2 2 2 3 2 3 3 4 4 4 4 4 4 4 5 4 4 4 4 4 4 4 4 4 4 4 4 4 4 4 4 3 3 4 4 4 4 3 3 3
Wind_Direction
270 273 269 261 257 257 254 259 262 244 227 211 166 119 92 110 121 120 120 127 123 132 134 140 145 151 160 163 165 173 174 181 184 184 187 190 194 191 184 190 197 189 194 205
265 266 269 269 262 258 256 252 257 257 256 162 81 113 99 96 101 117 119 116 122 130 131 139 145 153 156 162 167 171 177 183 177 178 188 192 188 184 181 186 193 191 199 202
264 263 264 254 253 252 250 248 245 236 219 156 153 51 87 94 104 112 113 109 102 103 128 143 147 150 156 163 168 169 170 171 169 176 185 189 192 183 184 190 193 198 202 196
262 263 254 250 257 260 257 266 266 236 171 146 136 107 91 86 94 103 109 107 116 137 143 148 155 161 160 166 166 165 167 173 172 175 179 177 181 182 189 189 190 196 203 192
257 253 253 251 251 254 255 260 299 257 175 142 129 135 96 73 71 84 109 113 122 130 140 147 160 158 149 154 163 168 174 179 174 173 179 182 179 183 188 187 194 198 186 179
251 258 255 250 285 290 265 223 53 62 87 99 159 218 113 71 63 68 74 89 101 105 100 120 141 147 149 159 167 179 182 182 174 171 177 183 180 179 180 190 201 199 191 178
242 251 261 292 298 286 252 182 69 67 71 76 30 33 55 50 50 56 69 77 80 85 76 76 104 124 143 156 178 182 176 169 168 172 182 182 175 175 181 192 195 191 192 190
237 245 248 349 327 321 37 58 60 59 59 54 60 60 54 44 41 39 70 78 89 86 83 75 81 99 116 108 100 142 149 157 168 171 199 184 166 180 186 189 191 191 193 189
252 251 59 20 23 23 45 50 46 39 53 78 85 73 49 41 36 12 38 57 87 101 95 92 96 113 121 93 84 120 155 165 178 180 178 172 175 182 187 193 199 198 198 197
283 227 255 355 346 356 11 16 12 357 344 107 147 193 2 41 21 347 344 41 77 114 114 106 104 104 107 103 94 123 148 165 172 164 165 154 165 189 195 203 209 199 201 208
265 279 292 289 333 349 350 349 339 324 318 295 222 250 306 358 353 322 305 27 52 81 103 108 115 118 115 107 108 137 163 189 198 192 176 154 133 43 172 31 212 193 210 219
266 289 298 307 314 312 316 312 309 311 320 319 314 265 251 257 346 313 269 193 150 170 186 182 148 123 102 106 120 140 204 209 216 211 187 168 144 95 48 55 67 105 148 168
284 290 298 300 296 295 283 286 293 290 286 293 303 304 177 328 312 301 263 209 207 217 209 204 182 152 123 116 117 187 237 247 245 232 204 190 171 169 155 68 53 68 106 134
289 294 291 292 294 300 289 284 283 281 285 293 308 325 318 292 295 284 265 236 226 221 214 208 184 159 154 154 207 234 244 251 253 250 228 213 198 199 188 180 170 112 63 131
288 287 287 291 301 298 300 292 285 283 290 294 285 294 314 297 295 289 283 277 246 230 215 211 231 52 54 240 245 256 255 254 257 255 245 224 207 206 198 182 168 150 125 114
281 287 293 290 285 285 293 297 295 297 295 303 306 314 309 309 315 308 328 328 236 229 209 178 134 341 281 269 266 262 255 241 244 262 242 209 207 205 192 175 163 165 153 120
276 277 279 280 285 285 288 296 298 302 311 312 318 336 350 335 311 296 313 328 91 118 79 73 37 0 315 291 282 276 270 230 225 243 232 207 209 215 199 186 191 173 156 142
284 289 290 283 291 295 298 301 305 305 296 298 316 358 319 292 302 354 5 81 94 90 76 61 45 356 1 8 328 299 280 242 234 152 161 172 208 230 220 191 187 180 148 154
292 297 300 292 280 273 287 297 309 320 328 321 340 7 24 48 48 66 74 87 96 96 74 58 35 2 46 48 357 290 258 70 68 71 86 121 205 265 260 234 207 153 129 131
303 299 300 307 306 291 272 291 324 331 330 347 79 76 62 52 60 83 81 66 59 35 56 64 59 58 55 45 349 306 308 75 70 62 57 37 30 353 356 108 117 125 108 83
338 341 345 9 10 360 351 348 5 323 342 95 92 83 78 71 52 74 100 89 63 28 24 69 82 56 52 15 326 324 44 66 60 46 45 40 33 39 52 68 73 71 70 65
24 17 33 38 31 21 23 54 101 98 97 97 103 97 90 85 74 74 73 71 83 39 13 58 79 59 39 5 346 11 38 52 48 48 57 54 54 51 47 47 53 57 60 65
37 42 47 50 45 37 42 68 86 87 91 101 108 110 106 69 58 77 84 77 83 66 40 49 62 66 41 346 357 27 34 41 41 44 55 60 54 51 51 52 53 51 49 47
61 59 53 51 57 57 54 61 71 78 81 92 95 91 90 89 77 69 81 86 79 80 63 63 67 59 32 17 30 45 46 46 44 40 44 53 54 50 47 51 56 55 55 49
58 57 58 59 63 66 79 90 95 93 93 96 95 89 87 85 87 78 76 76 84 88 80 76 71 62 53 54 50 52 53 52 50 46 45 43 48 54 56 52 49 45 40 43
75 72 71 65 57 55 75 83 82 87 94 91 88 85 81 80 83 84 86 88 87 88 80 79 73 72 68 61 55 54 55 57 56 56 52 45 50 53 55 51 49 46 41 37
84 80 74 69 69 67 74 78 72 76 83 83 82 81 83 77 75 73 71 71 73 70 65 62 62 63 57 54 55 54 50 45 44 45 46 47 47 46 44 47 44 41 37 31